EW4266 Weather Reports


time (UTC)temp
F
wind
direction
speed
knots
gust
knots
rain 1hr
in
rain 24hr
in
rain mn
in
humidity
%
barometer
mb
20260504060132 45 190 3.5 7.8 0.00 0.00 0.00 49 1008.1
20260504050731 45 165 3.5 8.7 0.00 0.00 0.00 51 1008.1
20260504050540 45 162 3.5 8.7 0.00 0.00 0.00 51 1008.0
20260504050438 45 171 4.3 8.7 0.00 0.00 0.00 51 1008.0
20260504050334 45 155 3.5 8.7 0.00 0.00 0.00 51 1008.0
20260504050255 45 160 3.5 8.7 0.00 0.00 0.00 51 1008.0
20260504050126 45 174 5.2 8.7 0.00 0.00 0.00 51 1008.0
20260504050019 45 163 4.3 9.6 0.00 0.00 0.00 51 1008.0
20260504045829 45 209 4.3 7.8 0.00 0.00 0.00 51 1008.0
20260504045743 45 182 3.5 7.8 0.00 0.00 0.00 51 1008.0
20260504045614 45 194 2.6 7.0 0.00 0.00 0.00 51 1008.1
20260504045535 45 157 2.6 7.0 0.00 0.00 0.00 51 1008.1
20260504045407 45 218 4.3 7.0 0.00 0.00 0.00 51 1008.1
20260504045223 45 192 5.2 7.0 0.00 0.00 0.00 51 1008.1
20260504045126 45 178 3.5 7.0 0.00 0.00 0.00 50 1008.1
20260504045026 45 190 3.5 6.1 0.00 0.00 0.00 50 1008.1
20260504044831 44 262 1.7 5.2 0.00 0.00 0.00 51 1008.2
20260504044732 44 229 1.7 5.2 0.00 0.00 0.00 50 1008.2
20260504044635 45 201 1.7 5.2 0.00 0.00 0.00 50 1008.2
20260504044535 45 192 1.7 5.2 0.00 0.00 0.00 50 1008.2
20260504044417 44 207 1.7 5.2 0.00 0.00 0.00 50 1008.2
20260504044333 44 205 2.6 6.1 0.00 0.00 0.00 50 1008.1
20260504044207 44 212 2.6 6.1 0.00 0.00 0.00 50 1008.1
20260504044107 44 162 1.7 7.0 0.00 0.00 0.00 50 1008.0
20260504043931 44 214 2.6 7.0 0.00 0.00 0.00 50 1008.2
20260504043852 44 199 3.5 7.0 0.00 0.00 0.00 50 1008.1
20260504043633 44 180 3.5 7.0 0.00 0.00 0.00 49 1008.0
20260504043557 44 164 3.5 7.0 0.00 0.00 0.00 49 1008.0
20260504043441 44 199 2.6 7.0 0.00 0.00 0.00 49 1008.1
20260504043403 44 150 3.5 7.0 0.00 0.00 0.00 49 1008.1
20260504043336 44 211 3.5 7.0 0.00 0.00 0.00 49 1008.1
20260504043143 44 196 2.6 6.1 0.00 0.00 0.00 49 1008.1
20260504043044 44 173 2.6 6.1 0.00 0.00 0.00 48 1008.1
20260504042938 44 180 3.5 6.1 0.00 0.00 0.00 48 1008.2
20260504042901 44 212 3.5 6.1 0.00 0.00 0.00 48 1008.2
20260504042805 44 183 3.5 6.1 0.00 0.00 0.00 48 1008.2
20260504042727 44 166 3.5 6.1 0.00 0.00 0.00 48 1008.2
20260504042529 43 171 4.3 6.1 0.00 0.00 0.00 47 1008.2
20260504042432 43 157 3.5 6.1 0.00 0.00 0.00 46 1008.2
20260504042335 43 196 3.5 6.1 0.00 0.00 0.00 46 1008.3
20260504042242 43 171 2.6 4.3 0.00 0.00 0.00 45 1008.3
20260504042155 43 208 2.6 4.3 0.00 0.00 0.00 45 1008.2
20260504042025 43 184 2.6 4.3 0.00 0.00 0.00 44 1008.2
20260504041924 43 180 2.6 5.2 0.00 0.00 0.00 44 1008.2
20260504041755 43 164 2.6 7.0 0.00 0.00 0.00 42 1008.2
20260504041629 42 188 2.6 7.0 0.00 0.00 0.00 40 1008.2
20260504041512 42 164 2.6 7.0 0.00 0.00 0.00 39 1008.3
20260504041444 42 200 2.6 7.0 0.00 0.00 0.00 37 1008.3
20260504041407 42 179 2.6 7.0 0.00 0.00 0.00 37 1008.3
20260504041311 42 184 2.6 7.0 0.00 0.00 0.00 37 1008.3
20260504041233 42 210 2.6 7.0 0.00 0.00 0.00 37 1008.3
20260504041108 41 215 3.5 7.0 0.00 0.00 0.00 32 1008.3
20260504040923 41 211 2.6 7.0 0.00 0.00 0.00 25 1008.3
20260504040835 41 209 2.6 5.2 0.00 0.00 0.00 22 1008.2
20260504040754 40 199 3.5 5.2 0.00 0.00 0.00 18 1008.2
20260504040713 40 198 3.5 6.1 0.00 0.00 0.00 11 1008.3
20260504040616 40 223 4.3 6.1 0.00 0.00 0.00 4 1008.4
20260504040518 39 173 3.5 6.1 0.00 0.00 0.00 1 1008.4
20260504040440 39 169 2.6 6.1 0.00 0.00 0.00 1 1008.4
20260504040309 39 197 1.7 6.1 0.00 0.00 0.00 1 1008.4
20260504040224 39 173 1.7 6.1 0.00 0.00 0.00 1 1008.4
20260504040037 38 201 2.6 6.1 0.00 0.00 0.00 1 1008.4
20260504035951 37 188 2.6 6.1 0.00 0.00 0.00 1 1008.3
20260504035741 36 185 2.6 4.3 0.00 0.00 0.00 1 1008.3
20260504035636 36 165 1.7 3.5 0.00 0.00 0.00 1 1008.3
20260504035505 36 204 1.7 2.6 0.00 0.00 0.00 1 1008.3
20260504035427 36 194 1.7 2.6 0.00 0.00 0.00 1 1008.3
20260504035230 35 194 0.9 2.6 0.00 0.00 0.00 1 1008.3
20260504035152 35 194 0.0 0.9 0.00 0.00 0.00 1 1008.3
20260504035056 35 194 0.0 0.9 0.00 0.00 0.00 1 1008.3
20260504035017 35 194 0.0 0.9 0.00 0.00 0.00 1 1008.3
20260504034831 35 194 0.0 0.9 0.00 0.00 0.00 1 1008.4
20260504034724 35 194 0.0 0.9 0.00 0.00 0.00 1 1008.4
20260504034648 35 194 0.0 0.9 0.00 0.00 0.00 1 1008.4
20260504034551 35 194 0.0 0.9 0.00 0.00 0.00 1 1008.4
20260504034514 35 194 0.0 0.9 0.00 0.00 0.00 1 1008.4
20260504034330 35 194 0.0 0.0 0.00 0.00 0.00 1 1008.4
20260504034231 35 194 0.0 0.0 0.00 0.00 0.00 1 1008.3
20260504034134 35 194 0.0 0.0 0.00 0.00 0.00 1 1008.4
20260504034057 35 194 0.0 0.0 0.00 0.00 0.00 1 1008.4
20260504033957 35 194 0.0 0.0 0.00 0.00 0.00 1 1008.4
20260504033906 35 194 0.0 0.0 0.00 0.00 0.00 1 1008.3
20260504033828 35 194 0.0 0.0 0.00 0.00 0.00 1 1008.3
20260504033631 34 194 0.0 0.0 0.00 0.00 0.00 1 1008.3
20260504033534 34 194 0.0 0.0 0.00 0.00 0.00 1 1008.4
20260504033437 34 194 0.0 0.0 0.00 0.00 0.00 1 1008.3
20260504033400 34 194 0.0 0.0 0.00 0.00 0.00 1 1008.3
20260504033322 34 194 0.0 0.0 0.00 0.00 0.00 1 1008.4
20260504033124 34 194 0.0 0.0 0.00 0.00 0.00 1 1008.3
20260504033047 34 194 0.0 0.0 0.00 0.00 0.00 1 1008.3
20260504032935 34 194 0.0 0.0 0.00 0.00 0.00 1 1008.3
20260504032906 34 194 0.0 0.0 0.00 0.00 0.00 1 1008.2
20260504032737 34 194 0.0 0.0 0.00 0.00 0.00 1 1008.2
20260504032630 34 194 0.0 0.0 0.00 0.00 0.00 1 1008.2
20260504032500 34 194 0.0 0.0 0.00 0.00 0.00 1 1008.4
20260504032401 34 194 0.0 0.0 0.00 0.00 0.00 1 1008.4
20260504032223 34 194 0.0 0.0 0.00 0.00 0.00 1 1008.3
20260504032144 34 194 0.0 0.0 0.00 0.00 0.00 1 1008.3
20260504032026 34 194 0.0 0.0 0.00 0.00 0.00 1 1008.3
20260504031948 34 194 0.0 0.0 0.00 0.00 0.00 1 1008.3
20260504031729 34 194 0.0 0.0 0.00 0.00 0.00 1 1008.3
20260504031634 34 194 0.0 0.0 0.00 0.00 0.00 1 1008.3
20260504031537 34 194 0.0 0.0 0.00 0.00 0.00 1 1008.3
20260504031500 34 194 0.0 0.0 0.00 0.00 0.00 1 1008.3
20260504031421 34 194 0.0 0.0 0.00 0.00 0.00 1 1008.3
20260504031224 34 194 0.0 0.0 0.00 0.00 0.00 1 1008.3
20260504031146 34 194 0.0 0.0 0.00 0.00 0.00 1 1008.3
20260504031028 34 194 0.0 0.0 0.00 0.00 0.00 1 1008.3
20260504030951 34 194 0.0 0.0 0.00 0.00 0.00 1 1008.3
20260504030914 34 194 0.0 0.0 0.00 0.00 0.00 1 1008.3
20260504030756 34 194 0.0 0.0 0.00 0.00 0.00 1 1008.3
20260504030721 34 194 0.0 0.0 0.00 0.00 0.00 1 1008.3
20260504030526 34 194 0.0 0.0 0.00 0.00 0.00 1 1008.3
20260504030446 34 194 0.0 0.0 0.00 0.00 0.00 1 1008.3
20260504030326 34 194 0.0 0.0 0.00 0.00 0.00 1 1008.3
20260504030218 34 194 0.0 0.0 0.00 0.00 0.00 1 1008.3
20260504030028 34 194 0.0 0.0 0.00 0.00 0.00 1 1008.4
20260504025945 34 194 0.0 0.0 0.00 0.00 0.00 1 1008.4
20260504025816 34 194 0.0 0.0 0.00 0.00 0.00 1 1008.4
20260504025715 34 194 0.0 0.0 0.00 0.00 0.00 1 1008.4
20260504025536 34 194 0.0 0.0 0.00 0.00 0.00 1 1008.4
20260504025503 34 194 0.0 0.0 0.00 0.00 0.00 1 1008.4
20260504025325 34 194 0.0 0.0 0.00 0.00 0.00 1 1008.3
20260504025247 34 194 0.0 0.0 0.00 0.00 0.00 1 1008.3
20260504025207 34 194 0.0 0.0 0.00 0.00 0.00 1 1008.3
20260504025111 34 194 0.0 0.0 0.00 0.00 0.00 1 1008.3
20260504025034 34 194 0.0 0.0 0.00 0.00 0.00 1 1008.3
20260504024837 34 194 0.0 0.0 0.00 0.00 0.00 1 1008.4
20260504024738 34 194 0.0 0.0 0.00 0.00 0.00 1 1008.3
20260504024641 34 194 0.0 0.0 0.00 0.00 0.00 1 1008.3
20260504024550 34 194 0.0 0.0 0.00 0.00 0.00 1 1008.3
20260504024504 34 194 0.0 0.0 0.00 0.00 0.00 1 1008.4
20260504024312 34 194 0.0 0.0 0.00 0.00 0.00 1 1008.4
20260504024234 34 194 0.0 0.0 0.00 0.00 0.00 1 1008.4
20260504024037 34 194 0.0 0.0 0.00 0.00 0.00 1 1008.4
20260504023959 34 194 0.0 0.0 0.00 0.00 0.00 1 1008.4
20260504023823 34 194 0.0 0.0 0.00 0.00 0.00 1 1008.5
20260504023717 34 194 0.0 0.0 0.00 0.00 0.00 1 1008.4
20260504023527 34 194 0.0 0.0 0.00 0.00 0.00 1 1008.5
20260504023445 34 194 0.0 0.0 0.00 0.00 0.00 1 1008.5
20260504023315 34 194 0.0 0.0 0.00 0.00 0.00 1 1008.5
20260504023236 34 194 0.0 0.0 0.00 0.00 0.00 1 1008.5
20260504023058 34 194 0.0 0.0 0.00 0.00 0.00 1 1008.5
20260504023019 34 194 0.0 0.0 0.00 0.00 0.00 1 1008.5
20260504022823 34 194 0.0 0.0 0.00 0.00 0.00 1 1008.5
20260504022725 34 194 0.0 0.0 0.00 0.00 0.00 1 1008.5
20260504022629 34 194 0.0 0.0 0.00 0.00 0.00 1 1008.5
20260504022530 34 194 0.0 0.0 0.00 0.00 0.00 1 1008.6
20260504022454 34 194 0.0 0.0 0.00 0.00 0.00 1 1008.6
20260504022359 34 194 0.0 0.0 0.00 0.00 0.00 1 1008.5
20260504022321 34 194 0.0 0.0 0.00 0.00 0.00 1 1008.6
20260504022124 35 194 0.0 0.0 0.00 0.00 0.00 1 1008.6
20260504022026 35 194 0.0 0.0 0.00 0.00 0.00 1 1008.6
20260504021941 35 194 0.0 0.0 0.00 0.00 0.00 1 1008.6
20260504021842 35 194 0.0 0.0 0.00 0.00 0.00 1 1008.5
20260504021712 35 194 0.0 0.0 0.00 0.00 0.00 1 1008.6
20260504021607 35 194 0.0 0.0 0.00 0.00 0.00 1 1008.6
20260504021437 35 194 0.0 0.0 0.00 0.00 0.00 1 1008.6
20260504021338 35 194 0.0 0.0 0.00 0.00 0.00 1 1008.6
20260504021219 35 194 0.0 1.7 0.00 0.00 0.00 1 1008.6
20260504021138 35 194 0.0 1.7 0.00 0.00 0.00 1 1008.6
20260504021009 35 194 0.0 1.7 0.00 0.00 0.00 1 1008.6
20260504020930 35 194 0.0 1.7 0.00 0.00 0.00 1 1008.6
20260504020732 35 194 0.0 1.7 0.00 0.00 0.00 1 1008.6
20260504020656 35 194 0.0 1.7 0.00 0.00 0.00 1 1008.6
20260504020559 35 194 0.0 1.7 0.00 0.00 0.00 1 1008.6
20260504020500 35 194 0.0 1.7 0.00 0.00 0.00 1 1008.6
20260504020421 35 194 0.0 0.9 0.00 0.00 0.00 1 1008.6
20260504020223 35 194 0.0 0.0 0.00 0.00 0.00 1 1008.6
20260504020145 35 194 0.0 0.0 0.00 0.00 0.00 1 1008.6
20260504020028 35 194 0.0 0.0 0.00 0.00 0.00 1 1008.6
20260504015931 35 194 0.0 0.0 0.00 0.00 0.00 1 1008.6
20260504015855 35 194 0.0 0.0 0.00 0.00 0.00 1 1008.6
20260504015759 35 194 0.0 0.0 0.00 0.00 0.00 1 1008.6
20260504015720 35 194 0.0 0.0 0.00 0.00 0.00 1 1008.6
20260504015523 35 194 0.0 0.0 0.00 0.00 0.00 1 1008.6
20260504015425 35 194 0.0 0.0 0.00 0.00 0.00 1 1008.6
20260504015328 35 194 0.0 0.0 0.00 0.00 0.00 1 1008.6
20260504015250 36 194 0.0 0.0 0.00 0.00 0.00 1 1008.6
20260504015211 36 194 0.0 0.0 0.00 0.00 0.00 1 1008.6
20260504015114 36 194 0.0 0.0 0.00 0.00 0.00 1 1008.8
20260504015040 36 194 0.0 0.0 0.00 0.00 0.00 1 1008.7
20260504014911 36 194 0.0 0.9 0.00 0.00 0.00 1 1008.7
20260504014824 36 194 0.0 0.9 0.00 0.00 0.00 1 1008.8
20260504014635 36 194 0.0 0.9 0.00 0.00 0.00 1 1008.7
20260504014552 36 194 0.0 0.9 0.00 0.00 0.00 1 1008.8
20260504014414 36 194 0.0 0.9 0.00 0.00 0.00 1 1008.8
20260504014350 36 194 0.0 0.9 0.00 0.00 0.00 1 1008.8
20260504014311 36 194 0.0 0.9 0.00 0.00 0.00 1 1008.7
20260504014155 36 194 0.0 0.9 0.00 0.00 0.00 1 1008.8
20260504014026 36 194 0.0 0.9 0.00 0.00 0.00 1 1008.7
20260504013859 36 194 0.0 0.9 0.00 0.00 0.00 1 1008.7
20260504013802 36 194 0.0 0.9 0.00 0.00 0.00 1 1008.7
20260504013717 36 194 0.0 0.0 0.00 0.00 0.00 1 1008.7
20260504013546 36 194 0.0 0.9 0.00 0.00 0.00 1 1008.7
20260504013448 36 194 0.0 0.9 0.00 0.00 0.00 1 1008.7
20260504013323 36 194 0.0 0.9 0.00 0.00 0.00 1 1008.7
20260504013226 36 194 0.0 0.9 0.00 0.00 0.00 1 1008.7
20260504013146 36 194 0.0 0.9 0.00 0.00 0.00 1 1008.7
20260504013017 37 194 0.0 0.9 0.00 0.00 0.00 1 1008.7
20260504012932 37 194 0.0 0.9 0.00 0.00 0.00 1 1008.6
20260504012751 37 194 0.0 0.9 0.00 0.00 0.00 1 1008.6
20260504012603 37 194 0.0 0.0 0.00 0.00 0.00 1 1008.6
20260504012505 37 194 0.0 0.0 0.00 0.00 0.00 1 1008.6
20260504012328 37 194 0.0 0.0 0.00 0.00 0.00 1 1008.6
20260504012251 37 194 0.0 0.0 0.00 0.00 0.00 1 1008.6
20260504012207 37 194 0.0 0.0 0.00 0.00 0.00 1 1008.5
20260504012017 37 194 0.0 0.0 0.00 0.00 0.00 1 1008.6
20260504011919 37 194 0.0 0.0 0.00 0.00 0.00 1 1008.5
20260504011821 37 194 0.0 0.0 0.00 0.00 0.00 1 1008.5
20260504011743 37 194 0.0 0.0 0.00 0.00 0.00 1 1008.5
20260504011612 38 194 0.0 0.0 0.00 0.00 0.00 1 1008.5
20260504011527 38 194 0.0 0.0 0.00 0.00 0.00 1 1008.5
20260504011357 38 194 0.0 0.9 0.00 0.00 0.00 1 1008.4
20260504011301 38 194 0.0 0.9 0.00 0.00 0.00 1 1008.4
20260504011123 38 194 0.0 0.9 0.00 0.00 0.00 1 1008.5
20260504011043 38 194 0.0 0.9 0.00 0.00 0.00 1 1008.5
20260504010916 38 194 0.0 0.9 0.00 0.00 0.00 1 1008.4
20260504010831 38 194 0.0 0.9 0.00 0.00 0.00 1 1008.4
20260504010642 38 194 0.0 0.9 0.00 0.00 0.00 1 1008.4
20260504010526 38 194 0.0 0.9 0.00 0.00 0.00 1 1008.3
20260504010453 38 194 0.0 0.9 0.00 0.00 0.00 1 1008.3
20260504010336 38 194 0.0 0.9 0.00 0.00 0.00 2 1008.3
20260504010302 38 194 0.0 0.9 0.00 0.00 0.00 3 1008.3
20260504010045 38 194 0.0 0.0 0.00 0.00 0.00 4 1008.3
20260504010005 38 194 0.0 0.0 0.00 0.00 0.00 5 1008.3
20260504005910 38 194 0.0 0.0 0.00 0.00 0.00 6 1008.3
20260504005832 38 194 0.0 0.0 0.00 0.00 0.00 6 1008.3
20260504005636 39 194 0.0 0.0 0.00 0.00 0.00 9 1008.2
20260504005538 39 194 0.0 0.9 0.00 0.00 0.00 9 1008.2
20260504005441 39 194 0.0 0.9 0.00 0.00 0.00 10 1008.2
20260504005344 39 194 0.0 0.9 0.00 0.00 0.00 10 1008.2
20260504005308 39 194 0.0 0.9 0.00 0.00 0.00 11 1008.2
20260504005210 39 194 0.0 0.9 0.00 0.00 0.00 11 1008.1
20260504005133 39 194 0.0 0.9 0.00 0.00 0.00 12 1008.1
20260504004937 39 194 0.0 0.9 0.00 0.00 0.00 13 1008.2
20260504004838 39 194 0.0 0.9 0.00 0.00 0.00 13 1008.1
20260504004723 39 194 0.0 0.9 0.00 0.00 0.00 14 1008.1
20260504004654 39 194 0.0 0.0 0.00 0.00 0.00 15 1008.1
20260504004437 40 194 0.0 0.0 0.00 0.00 0.00 18 1008.2
20260504004358 40 194 0.0 0.0 0.00 0.00 0.00 18 1008.2
20260504004234 40 194 0.0 0.0 0.00 0.00 0.00 18 1008.1
20260504004156 40 194 0.0 0.0 0.00 0.00 0.00 18 1008.1
20260504004039 40 194 0.0 0.0 0.00 0.00 0.00 19 1008.2
20260504003958 40 194 0.0 0.0 0.00 0.00 0.00 19 1008.2
20260504003839 40 194 0.0 0.0 0.00 0.00 0.00 21 1008.1
20260504003758 40 194 0.0 0.0 0.00 0.00 0.00 22 1008.1
20260504003700 40 194 0.0 0.0 0.00 0.00 0.00 23 1008.2
20260504003618 40 194 0.0 0.0 0.00 0.00 0.00 23 1008.1
20260504003446 41 194 0.0 0.0 0.00 0.00 0.00 24 1008.1
20260504003322 41 194 0.0 0.0 0.00 0.00 0.00 25 1008.1
20260504003234 41 194 0.0 0.0 0.00 0.00 0.00 25 1008.1
20260504003133 41 194 0.0 0.0 0.00 0.00 0.00 26 1008.1
20260504003034 41 194 0.0 0.0 0.00 0.00 0.00 26 1008.1
20260504002952 41 194 0.0 0.0 0.00 0.00 0.00 26 1008.1
20260504002818 41 194 0.0 0.0 0.00 0.00 0.00 27 1008.1
20260504002729 41 194 0.0 0.0 0.00 0.00 0.00 28 1008.1
20260504002559 42 194 0.0 0.0 0.00 0.00 0.00 29 1008.1
20260504002443 42 194 0.0 0.0 0.00 0.00 0.00 30 1008.1
20260504002339 42 194 0.0 0.0 0.00 0.00 0.00 30 1008.1
20260504002304 42 194 0.0 0.0 0.00 0.00 0.00 31 1008.1
20260504002206 42 194 0.0 0.0 0.00 0.00 0.00 32 1008.1
20260504002127 42 194 0.0 0.0 0.00 0.00 0.00 32 1008.1
20260504001930 42 194 0.0 0.0 0.00 0.00 0.00 33 1008.1
20260504001842 42 194 0.0 0.0 0.00 0.00 0.00 34 1008.0
20260504001723 43 194 0.0 0.0 0.00 0.00 0.00 35 1008.1
20260504001646 43 194 0.0 0.0 0.00 0.00 0.00 35 1008.1
20260504001602 43 194 0.0 0.0 0.00 0.00 0.00 36 1008.1
20260504001411 43 194 0.0 0.0 0.00 0.00 0.00 36 1008.1
20260504001315 43 194 0.0 0.0 0.00 0.00 0.00 36 1008.1
20260504001139 43 194 0.0 0.0 0.00 0.00 0.00 37 1008.1
20260504001041 43 194 0.0 0.0 0.00 0.00 0.00 37 1008.1
20260504000924 43 194 0.0 0.0 0.00 0.00 0.00 37 1008.1
20260504000845 44 194 0.0 0.0 0.00 0.00 0.00 37 1008.1
20260504000709 44 194 0.0 0.0 0.00 0.00 0.00 37 1008.0
20260504000632 44 194 0.0 0.0 0.00 0.00 0.00 37 1008.1
20260504000416 44 194 0.0 0.0 0.00 0.00 0.00 37 1008.0
20260504000330 44 194 0.0 0.0 0.00 0.00 0.00 36 1008.0
20260504000234 44 194 0.0 0.0 0.00 0.00 0.00 36 1008.0
20260504000153 44 194 0.0 0.9 0.00 0.00 0.00 36 1008.0
20260504000025 44 194 0.0 0.9 0.00 0.00 0.00 37 1008.0
20260503235918 45 194 0.0 0.9 0.00 0.02 0.00 36 1007.9
20260503235728 45 194 0.0 1.7 0.00 0.02 0.00 37 1008.0
20260503235640 45 194 0.0 1.7 0.00 0.02 0.00 37 1008.0
20260503235544 45 194 0.0 1.7 0.00 0.02 0.00 37 1008.0
20260503235438 45 194 0.0 1.7 0.00 0.02 0.00 38 1008.0
20260503235337 45 194 0.0 1.7 0.00 0.02 0.00 39 1008.0
20260503235245 45 194 0.0 1.7 0.00 0.02 0.00 41 1007.9
20260503235125 45 194 0.0 1.7 0.00 0.02 0.00 41 1007.9
20260503235027 46 194 0.0 1.7 0.00 0.02 0.00 41 1007.9
20260503234949 46 194 0.0 1.7 0.00 0.02 0.00 41 1007.9
20260503234821 46 194 0.0 1.7 0.00 0.02 0.00 41 1007.9
20260503234736 46 194 0.0 1.7 0.00 0.02 0.00 41 1007.9
20260503234527 46 194 0.9 1.7 0.00 0.02 0.00 43 1007.9
20260503234421 46 194 0.9 1.7 0.00 0.02 0.00 43 1007.9
20260503234345 46 194 0.9 1.7 0.00 0.02 0.00 43 1007.9
20260503234244 46 194 0.9 1.7 0.00 0.02 0.00 43 1007.9
20260503234206 47 194 0.9 1.7 0.00 0.02 0.00 44 1007.9
20260503234106 47 194 0.9 1.7 0.00 0.02 0.00 44 1007.9
20260503234011 47 194 0.9 1.7 0.00 0.02 0.00 43 1007.8
20260503233932 47 194 0.9 1.7 0.00 0.02 0.00 43 1007.8
20260503233735 47 194 0.0 0.0 0.00 0.02 0.00 40 1007.9
20260503233636 47 194 0.0 0.0 0.00 0.02 0.00 38 1007.8
20260503233530 47 194 0.0 0.0 0.00 0.02 0.00 40 1007.9
20260503233452 47 194 0.0 0.0 0.00 0.02 0.00 40 1007.9
20260503233407 47 194 0.0 0.0 0.00 0.02 0.00 42 1007.9
20260503233331 47 194 0.0 0.0 0.00 0.02 0.00 44 1007.8
20260503233231 48 194 0.0 0.0 0.00 0.02 0.00 47 1007.8
20260503233126 48 194 0.0 0.0 0.00 0.02 0.00 47 1007.8
20260503232938 48 194 0.0 0.0 0.00 0.02 0.00 49 1007.8
20260503232852 48 194 0.0 0.0 0.00 0.02 0.00 49 1007.8
20260503232722 48 194 0.0 0.0 0.00 0.02 0.00 50 1007.8
20260503232643 48 194 0.0 0.0 0.00 0.02 0.00 51 1007.8
20260503232507 48 194 0.0 0.0 0.00 0.02 0.00 52 1007.8
20260503232429 48 194 0.0 0.0 0.00 0.02 0.00 52 1007.8
20260503232239 48 194 0.0 0.0 0.00 0.02 0.00 52 1007.7
20260503232135 48 194 0.0 0.0 0.00 0.02 0.00 52 1007.7
20260503232059 48 194 0.0 0.0 0.00 0.02 0.00 52 1007.7
20260503232004 49 194 0.0 0.0 0.00 0.02 0.00 52 1007.7
20260503231925 49 194 0.0 0.0 0.00 0.02 0.00 52 1007.7
20260503231754 49 194 0.0 0.0 0.00 0.02 0.00 52 1007.7
20260503231647 49 194 0.0 0.0 0.00 0.02 0.00 52 1007.7
20260503231517 49 194 0.0 0.0 0.00 0.02 0.00 52 1007.6
20260503231439 49 194 0.0 0.0 0.00 0.02 0.00 52 1007.7
20260503231241 49 194 0.0 0.0 0.00 0.02 0.00 53 1007.7
20260503231141 49 194 0.0 0.0 0.00 0.02 0.00 53 1007.7
20260503231026 49 194 0.0 0.0 0.00 0.02 0.00 53 1007.7
20260503230951 49 194 0.0 0.0 0.00 0.02 0.00 53 1007.7
20260503230822 49 194 0.0 0.0 0.00 0.02 0.00 53 1007.7
20260503230714 49 194 0.0 0.0 0.00 0.02 0.00 53 1007.7
20260503230526 49 194 0.0 0.0 0.00 0.02 0.00 53 1007.7
20260503230439 49 194 0.0 0.0 0.00 0.02 0.00 51 1007.7
20260503230308 49 194 0.0 1.7 0.00 0.02 0.00 49 1007.7
20260503230208 49 194 0.0 1.7 0.00 0.02 0.00 48 1007.7
20260503230052 49 194 0.0 1.7 0.00 0.02 0.00 50 1007.7
20260503225931 49 194 0.0 1.7 0.00 0.03 0.00 49 1007.7
20260503225834 49 194 0.0 1.7 0.00 0.03 0.00 48 1007.7
20260503225757 49 194 0.0 1.7 0.00 0.03 0.00 49 1007.7
20260503225724 49 194 0.0 1.7 0.00 0.03 0.00 49 1007.7
20260503225527 49 194 0.9 1.7 0.00 0.03 0.00 49 1007.7
20260503225450 49 194 0.9 1.7 0.00 0.03 0.00 50 1007.7
20260503225336 49 194 0.0 0.9 0.00 0.03 0.00 50 1007.7
20260503225257 49 194 0.0 0.9 0.00 0.03 0.00 47 1007.7
20260503225108 49 194 0.0 0.0 0.00 0.03 0.00 46 1007.7
20260503224922 49 194 0.0 0.0 0.00 0.03 0.00 47 1007.7
20260503224825 49 194 0.0 0.9 0.00 0.03 0.00 45 1007.7
20260503224747 49 194 0.0 0.9 0.00 0.03 0.00 45 1007.7
20260503224713 49 194 0.0 0.9 0.00 0.03 0.00 46 1007.7
20260503224617 49 194 0.0 0.9 0.00 0.03 0.00 48 1007.8
20260503224517 49 194 0.0 0.9 0.00 0.03 0.00 48 1007.8
20260503224347 49 194 0.0 1.7 0.00 0.03 0.00 48 1007.8
20260503224240 49 194 0.0 1.7 0.00 0.03 0.00 48 1007.8
20260503224048 49 194 0.0 1.7 0.00 0.03 0.00 48 1007.8
20260503223951 49 194 0.0 1.7 0.00 0.03 0.00 48 1007.8
20260503223908 49 194 0.0 1.7 0.00 0.03 0.00 47 1007.8
20260503223646 49 194 0.9 2.6 0.00 0.03 0.00 47 1007.8
20260503223547 49 194 0.9 2.6 0.00 0.03 0.00 47 1007.8
20260503223509 49 194 0.0 2.6 0.00 0.03 0.00 46 1007.8
20260503223330 49 194 0.9 3.5 0.00 0.03 0.00 46 1007.8
20260503223225 49 194 0.9 3.5 0.00 0.03 0.00 46 1007.8
20260503223150 49 194 0.9 3.5 0.00 0.03 0.00 46 1007.8
20260503223121 49 194 0.9 3.5 0.00 0.03 0.00 47 1007.8
20260503223037 49 194 0.9 3.5 0.00 0.03 0.00 47 1007.8
20260503222907 49 194 1.7 3.5 0.00 0.03 0.00 45 1007.7
20260503222818 49 194 1.7 3.5 0.00 0.03 0.00 45 1007.7
20260503222622 49 184 1.7 3.5 0.00 0.03 0.00 46 1007.7
20260503222545 49 203 1.7 3.5 0.00 0.03 0.00 46 1007.7
20260503222450 49 223 0.9 2.6 0.00 0.03 0.00 46 1007.7
20260503222347 49 261 0.9 2.6 0.00 0.03 0.00 47 1007.7
20260503222218 50 261 0.9 2.6 0.00 0.03 0.00 46 1007.7
20260503222122 50 261 0.9 2.6 0.00 0.03 0.00 46 1007.7
20260503222006 50 261 0.0 1.7 0.00 0.03 0.00 46 1007.8
20260503221928 50 344 0.0 0.9 0.00 0.03 0.00 46 1007.7
20260503221732 50 344 0.0 1.7 0.00 0.03 0.00 47 1007.7
20260503221635 50 344 0.0 1.7 0.00 0.03 0.00 47 1007.8
20260503221539 50 344 0.0 1.7 0.00 0.03 0.00 47 1007.8
20260503221501 50 344 0.0 1.7 0.00 0.03 0.00 49 1007.8
20260503221330 50 344 0.0 2.6 0.00 0.03 0.00 46 1007.8
20260503221225 50 344 0.0 2.6 0.00 0.03 0.00 46 1007.7
20260503221054 50 344 0.9 3.5 0.00 0.03 0.00 44 1007.7
20260503220931 50 344 0.9 3.5 0.00 0.03 0.00 44 1007.7
20260503220859 50 344 0.9 3.5 0.00 0.03 0.00 46 1007.7
20260503220801 50 29 0.9 3.5 0.00 0.03 0.00 47 1007.7
20260503220644 50 29 0.9 3.5 0.00 0.03 0.00 47 1007.7
20260503220537 50 29 1.7 3.5 0.00 0.03 0.00 46 1007.6
20260503220500 50 29 1.7 3.5 0.00 0.03 0.00 46 1007.6
20260503220405 50 360 2.6 3.5 0.00 0.03 0.00 47 1007.6
20260503220326 50 338 2.6 3.5 0.00 0.03 0.00 47 1007.6
20260503220128 50 348 1.7 3.5 0.00 0.03 0.00 48 1007.7
20260503220029 50 298 0.9 2.6 0.00 0.03 0.00 47 1007.6
20260503215936 50 298 0.0 2.6 0.00 0.04 0.00 46 1007.7
20260503215858 50 206 0.0 1.7 0.00 0.04 0.00 45 1007.7
20260503215819 50 206 0.0 1.7 0.00 0.04 0.00 45 1007.6
20260503215702 50 206 0.0 2.6 0.00 0.04 0.00 45 1007.6
20260503215624 50 217 0.0 2.6 0.00 0.04 0.00 46 1007.7
20260503215429 50 217 0.9 2.6 0.00 0.04 0.00 48 1007.6
20260503215331 50 217 0.9 2.6 0.00 0.04 0.00 48 1007.6
20260503215234 50 217 0.9 2.6 0.00 0.04 0.00 47 1007.6
20260503215156 50 217 0.0 2.6 0.00 0.04 0.00 47 1007.6
20260503215119 50 217 0.0 2.6 0.00 0.04 0.00 46 1007.7
20260503214946 50 217 0.9 3.5 0.00 0.04 0.00 45 1007.7
20260503214844 50 217 1.7 3.5 0.00 0.04 0.00 45 1007.7
20260503214805 50 217 1.7 3.5 0.00 0.04 0.00 45 1007.7
20260503214708 50 273 0.9 3.5 0.00 0.04 0.00 47 1007.7
20260503214630 50 273 0.9 3.5 0.00 0.04 0.00 47 1007.7
20260503214435 50 317 0.0 3.5 0.00 0.04 0.00 45 1007.7
20260503214336 50 317 0.9 3.5 0.00 0.04 0.00 45 1007.7
20260503214240 50 317 1.7 3.5 0.00 0.04 0.00 45 1007.7
20260503214201 50 317 1.7 3.5 0.00 0.04 0.00 45 1007.7
20260503214123 50 323 1.7 3.5 0.00 0.04 0.00 45 1007.7
20260503213930 50 336 2.6 3.5 0.00 0.04 0.00 45 1007.7
20260503213853 50 330 2.6 3.5 0.00 0.04 0.00 45 1007.7
20260503213755 50 330 1.7 3.5 0.00 0.04 0.00 46 1007.7
20260503213637 50 319 1.7 2.6 0.00 0.04 0.00 45 1007.6
20260503213540 50 319 1.7 2.6 0.00 0.04 0.00 46 1007.7
20260503213501 50 319 0.9 2.6 0.00 0.04 0.00 47 1007.7
20260503213424 50 296 0.9 2.6 0.00 0.04 0.00 47 1007.6
20260503213254 50 206 0.9 2.6 0.00 0.04 0.00 47 1007.6
20260503213116 50 217 0.0 3.5 0.00 0.04 0.00 47 1007.6
20260503213037 50 217 0.0 3.5 0.00 0.04 0.00 46 1007.6
20260503212845 50 217 1.7 3.5 0.00 0.04 0.00 45 1007.6
20260503212739 50 217 1.7 3.5 0.00 0.04 0.00 45 1007.6
20260503212613 50 242 0.9 3.5 0.00 0.04 0.00 45 1007.6
20260503212536 50 298 0.9 3.5 0.00 0.04 0.00 44 1007.6
20260503212338 50 240 2.6 3.5 0.00 0.04 0.00 45 1007.6
20260503212300 50 232 2.6 3.5 0.00 0.04 0.00 45 1007.6
20260503212141 50 219 1.7 3.5 0.00 0.04 0.00 44 1007.6
20260503212104 50 198 1.7 3.5 0.00 0.04 0.00 45 1007.6
20260503212024 50 257 1.7 3.5 0.00 0.04 0.00 46 1007.6
20260503211827 50 10 1.7 3.5 0.00 0.04 0.00 46 1007.6
20260503211748 50 10 0.9 3.5 0.00 0.04 0.00 47 1007.6
20260503211632 50 326 0.0 2.6 0.00 0.04 0.00 46 1007.6
20260503211559 50 326 0.9 2.6 0.00 0.04 0.00 47 1007.6
20260503211521 50 326 0.9 2.6 0.00 0.04 0.00 47 1007.6
20260503211323 50 326 0.9 2.6 0.00 0.04 0.00 48 1007.5
20260503211243 50 326 0.9 2.6 0.00 0.04 0.00 47 1007.5
20260503211126 50 325 0.9 2.6 0.00 0.04 0.00 45 1007.5
20260503211047 50 325 1.7 2.6 0.00 0.04 0.00 45 1007.5
20260503210923 50 325 1.7 2.6 0.00 0.04 0.00 45 1007.6
20260503210817 50 325 0.9 2.6 0.00 0.04 0.00 47 1007.6
20260503210753 50 325 0.9 2.6 0.00 0.04 0.00 48 1007.6
20260503210534 50 306 0.9 2.6 0.00 0.04 0.00 47 1007.6
20260503210457 50 306 0.9 2.6 0.00 0.04 0.00 46 1007.6
20260503210400 50 306 1.7 2.6 0.00 0.04 0.00 46 1007.6
20260503210323 50 293 0.9 2.6 0.00 0.04 0.00 47 1007.6
20260503210126 50 334 0.0 2.6 0.00 0.04 0.00 49 1007.6
20260503210029 50 334 0.9 2.6 0.00 0.04 0.00 48 1007.6
20260503205931 50 331 0.9 2.6 0.00 0.04 0.00 48 1007.5
20260503205853 50 338 0.9 2.6 0.00 0.04 0.00 47 1007.5
20260503205815 50 317 0.9 2.6 0.00 0.04 0.00 47 1007.6
20260503205623 50 317 0.9 2.6 0.00 0.04 0.00 48 1007.6
20260503205527 49 317 0.9 2.6 0.00 0.04 0.00 47 1007.6
20260503205429 49 319 0.9 3.5 0.00 0.04 0.00 47 1007.6
20260503205352 49 319 1.7 5.2 0.00 0.04 0.00 47 1007.6
20260503205312 49 333 1.7 5.2 0.00 0.04 0.00 48 1007.6
20260503205217 49 87 0.9 5.2 0.00 0.04 0.00 47 1007.6
20260503205138 49 281 0.0 5.2 0.00 0.04 0.00 47 1007.6
20260503205009 49 302 0.9 5.2 0.00 0.04 0.00 47 1007.7
20260503204925 49 309 0.9 5.2 0.00 0.04 0.00 46 1007.6
20260503204723 49 342 1.7 5.2 0.00 0.04 0.00 46 1007.7
20260503204641 49 342 2.6 7.8 0.00 0.04 0.00 46 1007.7
20260503204511 49 322 2.6 7.8 0.00 0.04 0.00 47 1007.7
20260503204434 49 325 2.6 7.8 0.00 0.04 0.00 47 1007.6
20260503204236 49 329 1.7 7.8 0.00 0.04 0.00 48 1007.6
20260503204159 49 331 1.7 7.8 0.00 0.04 0.00 47 1007.6
20260503204023 49 332 3.5 7.8 0.00 0.04 0.00 46 1007.7
20260503203937 49 348 4.3 7.8 0.00 0.04 0.00 46 1007.7
20260503203726 49 9 3.5 7.0 0.00 0.04 0.00 46 1007.6
20260503203641 49 355 1.7 8.7 0.00 0.04 0.00 47 1007.6
20260503203453 49 313 1.7 8.7 0.00 0.04 0.00 48 1007.6
20260503203355 49 304 1.7 8.7 0.00 0.04 0.00 48 1007.6
20260503203316 49 296 2.6 8.7 0.00 0.04 0.00 47 1007.6
20260503203138 49 321 4.3 8.7 0.00 0.04 0.00 46 1007.6
20260503203100 49 340 3.5 8.7 0.00 0.04 0.00 46 1007.6
20260503203016 49 331 3.5 8.7 0.00 0.04 0.00 47 1007.6
20260503202734 49 355 4.3 7.8 0.00 0.04 0.00 48 1007.7
20260503202635 49 327 4.3 7.8 0.00 0.04 0.00 47 1007.7
20260503202437 49 311 4.3 7.8 0.00 0.04 0.00 47 1007.7
20260503202400 49 347 4.3 7.8 0.00 0.04 0.00 48 1007.7
20260503202247 49 336 5.2 7.8 0.00 0.04 0.00 48 1007.7
20260503202149 49 333 5.2 7.8 0.00 0.04 0.00 48 1007.7
20260503202025 49 338 5.2 7.8 0.00 0.04 0.00 46 1007.8
20260503201928 49 337 5.2 7.8 0.00 0.04 0.00 47 1007.8
20260503201850 49 331 5.2 7.8 0.00 0.04 0.00 46 1007.8
20260503201811 49 347 6.1 7.8 0.00 0.04 0.00 46 1007.8
20260503201632 50 355 5.2 7.8 0.00 0.04 0.00 47 1007.8
20260503201555 50 309 4.3 7.8 0.00 0.04 0.00 47 1007.8
20260503201519 50 338 3.5 7.8 0.00 0.04 0.00 47 1007.8
20260503201343 50 348 2.6 7.8 0.00 0.04 0.00 46 1007.8
20260503201244 50 360 3.5 7.8 0.00 0.04 0.00 46 1007.8
20260503201147 50 348 3.5 7.8 0.00 0.04 0.00 47 1007.8
20260503201108 50 346 3.5 7.8 0.00 0.04 0.00 47 1007.8
20260503201007 50 5 3.5 7.8 0.00 0.04 0.00 47 1007.8
20260503200910 50 355 4.3 7.8 0.00 0.04 0.00 47 1007.8
20260503200832 50 327 4.3 7.8 0.00 0.04 0.00 48 1007.7
20260503200636 50 27 1.7 7.0 0.00 0.04 0.00 48 1007.7
20260503200538 50 348 3.5 7.0 0.00 0.04 0.00 49 1007.7
20260503200422 50 350 3.5 7.0 0.00 0.04 0.00 47 1007.8
20260503200348 50 53 3.5 6.1 0.00 0.04 0.00 48 1007.9
20260503200230 50 24 3.5 5.2 0.00 0.04 0.00 48 1007.9
20260503200153 50 329 3.5 5.2 0.00 0.04 0.00 48 1007.9
20260503200112 50 349 3.5 5.2 0.00 0.04 0.00 48 1007.9
20260503195922 50 315 2.6 5.2 0.00 0.04 0.00 49 1007.9
20260503195836 50 348 2.6 7.0 0.00 0.04 0.00 48 1008.0
20260503195705 50 339 3.5 7.8 0.00 0.04 0.00 49 1008.0
20260503195627 49 340 2.6 7.8 0.00 0.04 0.00 48 1007.9
20260503195429 49 346 2.6 7.8 0.00 0.04 0.00 47 1008.0
20260503195355 49 317 3.5 7.8 0.00 0.04 0.00 49 1008.0
20260503195237 49 205 2.6 8.7 0.00 0.04 0.00 48 1008.0
20260503195204 49 224 2.6 8.7 0.00 0.04 0.00 48 1008.0
20260503195118 49 271 3.5 8.7 0.00 0.04 0.00 48 1008.0
20260503194948 49 319 3.5 8.7 0.00 0.04 0.00 51 1008.0
20260503194850 49 325 2.6 8.7 0.00 0.04 0.00 47 1008.0
20260503194804 49 14 0.9 8.7 0.00 0.04 0.00 48 1008.0
20260503194634 49 304 3.5 8.7 0.00 0.04 0.00 48 1008.1
20260503194535 49 324 4.3 8.7 0.00 0.04 0.00 48 1008.2
20260503194406 49 325 2.6 4.3 0.00 0.04 0.00 48 1008.2
20260503194240 49 317 1.7 4.3 0.00 0.04 0.00 48 1008.2
20260503194123 49 274 1.7 4.3 0.00 0.04 0.00 50 1008.2
20260503194046 49 257 1.7 4.3 0.00 0.04 0.00 50 1008.2
20260503194012 49 284 1.7 4.3 0.00 0.04 0.00 49 1008.2
20260503193915 49 321 1.7 4.3 0.00 0.04 0.00 49 1008.2
20260503193838 49 311 1.7 4.3 0.00 0.04 0.00 50 1008.2
20260503193707 49 232 0.9 4.3 0.00 0.04 0.00 49 1008.2
20260503193559 49 232 1.7 4.3 0.00 0.04 0.00 48 1008.2
20260503193430 49 217 1.7 7.8 0.00 0.04 0.00 50 1008.3
20260503193329 49 234 0.9 7.8 0.00 0.04 0.00 51 1008.2
20260503193132 48 247 1.7 7.8 0.00 0.04 0.00 49 1008.3
20260503193054 48 226 2.6 7.8 0.00 0.04 0.00 49 1008.3
20260503192937 49 240 2.6 8.7 0.00 0.04 0.00 49 1008.3
20260503192900 48 286 2.6 8.7 0.00 0.04 0.00 49 1008.3
20260503192825 49 13 2.6 8.7 0.00 0.04 0.00 48 1008.4
20260503192627 49 304 3.5 8.7 0.00 0.04 0.00 48 1008.4
20260503192550 49 331 3.5 8.7 0.00 0.04 0.00 48 1008.4
20260503192452 49 290 2.6 8.7 0.00 0.04 0.00 49 1008.4
20260503192353 49 277 2.6 8.7 0.00 0.04 0.00 50 1008.4
20260503192314 49 266 3.5 8.7 0.00 0.04 0.00 49 1008.3
20260503192218 49 286 4.3 8.7 0.00 0.04 0.00 48 1008.4
20260503192120 49 216 4.3 8.7 0.00 0.04 0.00 48 1008.3
20260503191923 49 314 1.7 7.0 0.00 0.04 0.00 49 1008.4
20260503191825 49 310 3.5 7.0 0.00 0.04 0.00 49 1008.4
20260503191732 49 313 2.6 7.0 0.00 0.04 0.00 49 1008.4
20260503191653 49 315 1.7 7.0 0.00 0.04 0.00 49 1008.4
20260503191615 49 184 2.6 5.2 0.00 0.04 0.00 50 1008.4
20260503191516 49 306 2.6 5.2 0.00 0.04 0.00 50 1008.4
20260503191419 48 330 3.5 5.2 0.00 0.04 0.00 50 1008.4
20260503191340 48 337 3.5 7.0 0.00 0.04 0.00 51 1008.4
20260503191210 48 341 2.6 7.0 0.00 0.04 0.00 51 1008.5
20260503191124 48 327 1.7 7.0 0.00 0.04 0.00 51 1008.5
20260503190935 48 300 1.7 7.0 0.00 0.04 0.00 50 1008.5
20260503190850 48 355 2.6 7.0 0.00 0.04 0.00 49 1008.5
20260503190719 48 311 4.3 7.8 0.00 0.04 0.00 50 1008.5
20260503190642 48 341 2.6 9.6 0.00 0.04 0.00 50 1008.6
20260503190427 48 17 2.6 9.6 0.00 0.04 0.00 50 1008.6
20260503190349 48 308 2.6 9.6 0.00 0.04 0.00 50 1008.6
20260503190253 48 336 2.6 9.6 0.00 0.04 0.00 50 1008.6
20260503190214 48 256 2.6 9.6 0.00 0.04 0.00 50 1008.6
20260503190025 48 319 5.2 9.6 0.00 0.04 0.00 49 1008.6
20260503185929 48 338 7.0 9.6 0.00 0.04 0.00 49 1008.6
20260503185852 48 342 6.1 9.6 0.00 0.04 0.00 49 1008.6
20260503185755 48 5 4.3 8.7 0.00 0.04 0.00 49 1008.6
20260503185635 48 291 4.3 8.7 0.00 0.04 0.00 49 1008.6
20260503185522 48 323 4.3 8.7 0.00 0.04 0.00 48 1008.6
20260503185445 48 315 3.5 8.7 0.00 0.04 0.00 48 1008.6
20260503185341 48 350 2.6 8.7 0.00 0.04 0.00 48 1008.6
20260503185304 49 38 4.3 10.4 0.00 0.04 0.00 49 1008.6
20260503185136 49 355 5.2 10.4 0.00 0.04 0.00 48 1008.6
20260503185020 49 35 4.3 10.4 0.00 0.04 0.00 49 1008.5
20260503184954 49 360 3.5 12.2 0.00 0.04 0.00 50 1008.6
20260503184737 48 296 2.6 12.2 0.00 0.04 0.00 51 1008.6
20260503184642 48 259 2.6 12.2 0.00 0.04 0.00 50 1008.6
20260503184536 48 203 3.5 12.2 0.00 0.04 0.00 51 1008.7
20260503184459 48 196 3.5 12.2 0.00 0.04 0.00 52 1008.7
20260503184414 48 283 4.3 12.2 0.00 0.04 0.00 50 1008.6
20260503184243 48 275 5.2 12.2 0.00 0.04 0.00 49 1008.7
20260503184146 48 309 4.3 12.2 0.00 0.04 0.00 49 1008.7
20260503184029 48 206 1.7 7.0 0.00 0.04 0.00 51 1008.7
20260503183951 48 286 1.7 7.0 0.00 0.04 0.00 50 1008.7
20260503183913 48 259 1.7 7.0 0.00 0.04 0.00 50 1008.7
20260503183816 48 272 2.6 7.0 0.00 0.04 0.00 50 1008.8
20260503183742 48 290 2.6 7.0 0.00 0.04 0.00 50 1008.7
20260503183613 48 342 3.5 7.0 0.00 0.04 0.00 50 1008.7
20260503183529 47 338 3.5 7.0 0.00 0.04 0.00 51 1008.8
20260503183338 47 306 1.7 6.1 0.00 0.04 0.00 51 1008.8
20260503183253 47 345 2.6 6.1 0.00 0.04 0.00 50 1008.8
20260503183122 47 246 2.6 6.1 0.00 0.04 0.00 51 1008.8
20260503183044 47 296 2.6 7.8 0.00 0.04 0.00 51 1008.8
20260503182908 47 282 2.6 7.8 0.00 0.04 0.00 51 1008.8
20260503182830 47 283 2.6 7.8 0.00 0.04 0.00 51 1008.7
20260503182634 47 252 3.5 7.8 0.00 0.04 0.00 50 1008.8
20260503182540 47 248 2.6 7.8 0.00 0.04 0.00 50 1008.8
20260503182423 47 298 2.6 7.8 0.00 0.04 0.00 51 1008.8
20260503182347 47 306 3.5 7.8 0.00 0.04 0.00 51 1008.8
20260503182310 47 343 3.5 7.8 0.00 0.04 0.00 51 1008.8
20260503182130 47 152 2.6 7.8 0.00 0.04 0.00 51 1008.8
20260503182054 47 242 1.7 7.8 0.00 0.04 0.00 52 1008.8
20260503182009 47 271 2.6 8.7 0.00 0.04 0.00 52 1008.8
20260503181910 47 305 3.5 11.3 0.00 0.04 0.00 51 1008.8
20260503181811 47 340 2.6 11.3 0.00 0.04 0.00 51 1008.8
20260503181522 47 270 3.5 11.3 0.00 0.04 0.00 50 1008.8
20260503181448 47 329 4.3 11.3 0.00 0.04 0.00 49 1008.8
20260503181352 47 267 5.2 11.3 0.00 0.04 0.00 50 1008.8
20260503181233 47 275 6.1 11.3 0.00 0.04 0.00 49 1008.8
20260503181129 47 322 7.0 11.3 0.00 0.04 0.00 49 1008.8
20260503181051 47 329 6.1 11.3 0.00 0.04 0.00 50 1008.8
20260503180922 47 328 5.2 9.6 0.00 0.04 0.00 49 1008.8
20260503180816 47 326 6.1 9.6 0.00 0.04 0.00 50 1008.8
20260503180624 47 325 7.0 9.6 0.00 0.04 0.00 50 1008.8
20260503180525 47 334 7.0 9.6 0.00 0.04 0.00 50 1008.7
20260503180328 48 341 6.1 9.6 0.00 0.04 0.00 49 1008.6
20260503180255 48 323 6.1 9.6 0.00 0.04 0.00 49 1008.6
20260503180159 48 329 6.1 9.6 0.00 0.04 0.00 50 1008.7
20260503180121 48 336 6.1 9.6 0.00 0.04 0.00 50 1008.6
20260503175924 48 341 4.3 7.8 0.00 0.04 0.00 50 1008.6
20260503175846 48 327 3.5 8.7 0.00 0.04 0.00 50 1008.6
20260503175714 48 317 2.6 9.6 0.00 0.04 0.00 50 1008.6
20260503175636 48 319 2.6 9.6 0.00 0.04 0.00 50 1008.6
20260503175438 48 265 1.7 9.6 0.00 0.04 0.00 50 1008.6
20260503175402 48 36 1.7 10.4 0.00 0.04 0.00 50 1008.6
20260503175304 48 281 4.3 10.4 0.00 0.04 0.00 50 1008.7
20260503175149 48 296 6.1 10.4 0.00 0.04 0.00 50 1008.7
20260503175031 48 344 6.1 10.4 0.00 0.04 0.00 49 1008.7
20260503174952 48 360 5.2 10.4 0.00 0.04 0.00 51 1008.7
20260503174905 48 341 5.2 10.4 0.00 0.04 0.00 50 1008.7
20260503174808 48 331 6.1 10.4 0.00 0.04 0.00 50 1008.7
20260503174709 48 336 6.1 10.4 0.00 0.04 0.00 50 1008.8
20260503174517 48 21 7.0 9.6 0.00 0.04 0.00 51 1008.8
20260503174418 48 342 5.2 9.6 0.00 0.04 0.00 51 1008.8
20260503174239 47 10 4.3 10.4 0.00 0.04 0.00 52 1008.8
20260503174202 47 19 4.3 10.4 0.00 0.04 0.00 52 1008.8
20260503174117 47 343 3.5 10.4 0.00 0.04 0.00 51 1008.8
20260503173947 47 308 2.6 11.3 0.00 0.04 0.00 50 1008.9
20260503173853 47 327 2.6 11.3 0.00 0.04 0.00 51 1008.8
20260503173634 47 15 7.0 11.3 0.00 0.04 0.00 50 1008.9
20260503173556 47 13 7.8 11.3 0.00 0.04 0.00 51 1008.9
20260503173500 47 347 7.8 11.3 0.00 0.04 0.00 51 1008.9
20260503173423 47 336 7.8 11.3 0.00 0.04 0.00 51 1008.9
20260503173227 47 360 7.8 11.3 0.00 0.04 0.00 50 1008.9
20260503173129 47 323 5.2 11.3 0.00 0.04 0.00 50 1008.8
20260503173031 47 325 4.3 9.6 0.00 0.04 0.00 51 1008.8
20260503172933 47 333 5.2 9.6 0.00 0.04 0.00 50 1008.9
20260503172859 47 311 5.2 9.6 0.00 0.04 0.00 51 1008.9
20260503172804 47 355 4.3 9.6 0.00 0.04 0.00 50 1008.9
20260503172725 47 355 5.2 9.6 0.00 0.04 0.00 50 1008.9
20260503172528 47 19 6.1 9.6 0.00 0.04 0.00 52 1008.9
20260503172429 47 9 5.2 9.6 0.00 0.04 0.00 51 1008.8
20260503172332 47 360 5.2 9.6 0.00 0.04 0.00 51 1008.9
20260503172254 47 350 5.2 9.6 0.00 0.04 0.00 52 1008.9
20260503172216 47 340 6.1 12.2 0.00 0.04 0.00 52 1008.9
20260503172039 47 348 6.1 12.2 0.00 0.04 0.00 52 1008.9
20260503171938 47 345 6.1 12.2 0.00 0.04 0.00 51 1008.9
20260503171839 47 355 5.2 12.2 0.00 0.04 0.00 52 1008.9
20260503171733 47 334 5.2 12.2 0.00 0.04 0.00 52 1009.0
20260503171656 47 329 4.3 12.2 0.00 0.04 0.00 52 1009.0
20260503171559 47 309 4.3 12.2 0.00 0.04 0.00 52 1009.0
20260503171521 47 340 5.2 12.2 0.00 0.04 0.00 51 1009.0
20260503171352 47 338 6.1 12.2 0.00 0.04 0.00 52 1009.0
20260503171133 47 355 4.3 7.0 0.00 0.04 0.00 52 1009.0
20260503171056 47 313 4.3 7.0 0.00 0.04 0.00 52 1009.0
20260503170943 47 321 4.3 9.6 0.00 0.04 0.00 51 1009.0
20260503170845 47 355 4.3 9.6 0.00 0.04 0.00 52 1009.1
20260503170805 47 323 4.3 9.6 0.00 0.04 0.00 51 1009.1
20260503170721 47 338 4.3 9.6 0.00 0.04 0.00 51 1009.1
20260503170643 47 346 4.3 9.6 0.00 0.04 0.00 51 1009.1
20260503170513 47 341 4.3 9.6 0.00 0.04 0.00 51 1009.0
20260503170429 47 348 3.5 9.6 0.00 0.04 0.00 51 1009.0
20260503170259 47 292 4.3 9.6 0.00 0.04 0.00 51 1009.1
20260503170113 47 283 5.2 9.6 0.00 0.04 0.00 51 1009.1
20260503160155 46 291 8.7 13.9 0.00 0.04 0.00 51 1009.6
20260503160118 46 327 7.8 13.9 0.00 0.04 0.00 51 1009.7
20260503150826 49 355 7.8 11.3 0.00 0.04 0.00 50 1009.8
20260503150748 49 317 6.1 10.4 0.00 0.04 0.00 49 1009.8
20260503150631 49 329 5.2 10.4 0.00 0.04 0.00 50 1009.7
20260503150555 49 225 5.2 10.4 0.00 0.04 0.00 47 1009.7
20260503150522 49 296 5.2 10.4 0.00 0.04 0.00 49 1009.8
20260503150331 49 319 5.2 13.0 0.00 0.04 0.00 50 1009.7
20260503150232 49 26 5.2 13.0 0.00 0.04 0.00 48 1009.7
20260503150138 49 13 5.2 14.8 0.00 0.04 0.00 48 1009.7
20260503140234 47 360 3.5 13.9 0.00 0.04 0.00 45 1010.0
20260503140136 47 351 4.3 13.9 0.00 0.04 0.00 46 1010.0
20260503131343 45 355 4.3 9.6 0.00 0.04 0.00 16 1010.3
20260503131238 45 350 2.6 9.6 0.00 0.04 0.00 19 1010.4
20260503131157 45 360 3.5 9.6 0.00 0.04 0.00 23 1010.4
20260503131109 45 331 5.2 10.4 0.00 0.04 0.00 23 1010.4
20260503131028 45 310 6.1 10.4 0.00 0.04 0.00 20 1010.4
20260503130834 45 321 5.2 10.4 0.00 0.04 0.00 18 1010.4
20260503130726 45 303 5.2 10.4 0.00 0.04 0.00 17 1010.4
20260503130534 45 331 7.0 10.4 0.00 0.04 0.00 19 1010.4
20260503130444 45 16 7.8 10.4 0.00 0.04 0.00 12 1010.4
20260503130324 45 340 7.0 10.4 0.00 0.04 0.00 12 1010.4
20260503130239 45 345 5.2 9.6 0.00 0.04 0.00 10 1010.4
20260503120157 41 335 2.6 7.8 0.00 0.04 0.00 1 1010.5
20260503110730 39 277 0.0 0.9 0.00 0.05 0.00 1 1010.5
20260503110612 39 277 0.0 0.9 0.00 0.05 0.00 1 1010.5
20260503110534 39 277 0.0 0.9 0.00 0.05 0.00 1 1010.5
20260503110405 39 277 0.0 0.9 0.00 0.05 0.00 1 1010.5
20260503110318 39 277 0.0 0.9 0.00 0.05 0.00 1 1010.5
20260503110158 39 277 0.0 0.0 0.00 0.05 0.00 1 1010.5
20260503100229 38 355 0.0 0.0 0.00 0.05 0.00 1 1010.3
20260503100132 38 355 0.0 0.0 0.00 0.05 0.00 1 1010.3
20260503090512 38 355 0.0 0.0 0.00 0.05 0.00 1 1010.4
20260503090333 38 355 0.0 0.0 0.00 0.05 0.00 1 1010.4
20260503090257 38 355 0.0 0.0 0.00 0.05 0.00 1 1010.4
20260503090159 38 355 0.0 0.0 0.00 0.05 0.00 1 1010.4
20260503081625 39 355 0.0 0.0 0.00 0.05 0.00 1 1010.7
20260503081549 39 355 0.0 0.0 0.00 0.05 0.00 1 1010.7
20260503081504 39 355 0.0 0.0 0.00 0.05 0.00 1 1010.7
20260503081426 39 355 0.0 0.0 0.00 0.05 0.00 1 1010.7
20260503081229 39 355 0.0 0.0 0.00 0.05 0.00 1 1010.7
20260503081132 39 355 0.0 0.0 0.00 0.05 0.00 1 1010.7
20260503081027 39 355 0.0 0.0 0.00 0.05 0.00 1 1010.7
20260503080926 39 355 0.0 0.0 0.00 0.05 0.00 1 1010.7
20260503080829 39 355 0.0 0.0 0.00 0.05 0.00 1 1010.8
20260503080722 39 355 0.0 0.0 0.00 0.05 0.00 1 1010.8
20260503080647 39 355 0.0 0.0 0.00 0.05 0.00 1 1010.8
20260503080529 39 355 0.0 0.0 0.00 0.05 0.00 1 1010.8
20260503080451 39 355 0.0 0.0 0.00 0.05 0.00 1 1010.7
20260503080231 39 355 0.0 0.0 0.00 0.05 0.00 1 1010.8
20260503080154 39 355 0.0 0.0 0.00 0.05 0.00 1 1010.8
20260503080104 39 355 0.0 0.0 0.00 0.05 0.00 1 1010.7
20260503072910 39 355 0.0 0.0 0.00 0.05 0.00 1 1010.7
20260503072831 39 355 0.0 0.0 0.00 0.05 0.00 1 1010.7
20260503072634 39 355 0.0 0.0 0.00 0.05 0.00 1 1010.7
20260503072535 39 355 0.0 0.0 0.00 0.05 0.00 1 1010.7
20260503072438 39 355 0.0 0.0 0.00 0.05 0.00 1 1010.7
20260503072401 39 355 0.0 0.0 0.00 0.05 0.00 1 1010.7
20260503072322 39 355 0.0 0.0 0.00 0.05 0.00 1 1010.8
20260503072125 39 355 0.0 0.0 0.00 0.05 0.00 1 1010.7
20260503072052 39 355 0.0 0.0 0.00 0.05 0.00 1 1010.7
20260503071915 39 355 0.0 0.0 0.00 0.05 0.00 1 1010.7
20260503071839 39 355 0.0 0.0 0.00 0.05 0.00 1 1010.7
20260503071708 39 355 0.0 0.0 0.00 0.05 0.00 1 1010.7
20260503071631 39 355 0.0 0.0 0.00 0.05 0.00 1 1010.7
20260503071434 39 355 0.0 0.0 0.00 0.05 0.00 1 1010.7
20260503071357 39 355 0.0 0.0 0.00 0.05 0.00 1 1010.7
20260503071239 39 355 0.0 0.0 0.00 0.05 0.00 1 1010.7
20260503071159 39 355 0.0 0.0 0.00 0.05 0.00 1 1010.7
20260503071026 39 355 0.0 0.0 0.00 0.05 0.00 1 1010.7
20260503070948 39 355 0.0 0.0 0.00 0.05 0.00 1 1010.7
20260503070811 39 355 0.0 0.0 0.00 0.05 0.00 1 1010.8
20260503070732 39 355 0.0 0.0 0.00 0.05 0.00 1 1010.8
20260503070534 39 355 0.0 0.0 0.00 0.05 0.00 1 1010.8
20260503070435 39 355 0.0 0.0 0.00 0.05 0.00 1 1010.8
20260503070351 39 355 0.0 0.0 0.00 0.05 0.00 1 1010.8
20260503070312 39 355 0.0 0.0 0.00 0.05 0.00 1 1010.8
20260503070244 39 355 0.0 0.0 0.00 0.05 0.00 1 1010.8
20260503070114 39 355 0.0 0.0 0.00 0.05 0.00 1 1010.8